Other Surface Observations
Issued by NWS

Home | Current Version | Previous Version | Text Only | Print | Product List | Glossary On
Versions: 1 2 3 4 5 6 7 8 9 10 11 12 13 14 15 16 17 18 19 20 21 22 23 24 25 26 27 28 29 30 31 32 33 34 35 36 37 38 39 40 41 42 43 44 45 46 47 48 49 50
000
SXUS52 KTAE 311918
OSOTAE
OSOTAE
North Florida/South Alabama/Southwest Georgia Weather Roundup
National Weather Service Tallahassee Florida
300 PM EDT MON AUG 31 2015

Note: "fair" indicates few or no clouds below 12,000 feet with no
significant weather and/or obstructions to visibility.

!FLZ017-115-028-034-025-312000
...North Florida...

CITY           SKY/WX    TMP DP  RH WIND       PRES   REMARKS
TALLAHASSEE    MOSUNNY   92  72  51 NE8       30.04F HX  99
APALACHICOLA   SUNNY     88  78  72 SE10      30.03F HX 101
PERRY          MOSUNNY   88  53  30 N7        30.05F
CROSS CITY       N/A     89  74  60 N5        30.04F HX  98
JACKSONVILLE   PTSUNNY   87  74  64 N3        30.04F HX  95
$$

!FLZ112-006-005-002-011-312000
...Florida Panhandle...

CITY           SKY/WX    TMP DP  RH WIND       PRES   REMARKS
MARIANNA       SUNNY     91  69  48 N12G17    30.04F HX  96
BONIFAY        NOT AVBL
PANAMA CITY NW FAIR      93  68  43 NW6       30.02F HX  97
TYNDALL AFB    SUNNY     94  68  43 NE8       30.02F HX  98
TYND DRONE APT FAIR      95  68  41 N9        30.02F HX  99
DE FUNIAK SPR  MOCLDY    88  67  49 N5        30.05F HX  91
EGLIN AFB      MOSUNNY   93  69  45 S7        30.03F HX  98
DESTIN         SUNNY     90  71  53 VRB7      30.04F HX  96
HURLBURT       SUNNY     88  70  55 S10       30.03F HX  93
CRESTVIEW      MOSUNNY   93  69  45 N7        30.05F HX  98
PENSACOLA      MOSUNNY   91  64  40 VRB5      30.04F HX  92
$$

!ALZ063-066-312000
...South Alabama...

CITY           SKY/WX    TMP DP  RH WIND       PRES   REMARKS
DOTHAN         MOSUNNY   88  70  55 N7        30.10F HX  93
OZARK CAIRNS   MOSUNNY   89  70  52 N7        30.05F HX  94
FT RUCKER HELI MOSUNNY   92  69  47 VRB5      30.04F HX  97
RUCKER HELI 3  FAIR      90  65  42 NW10      30.07F HX  92
RUCKER HELI 2  NOT AVBL
FLORALA APT    MOSUNNY   91  67  44 NE5       30.07F HX  94
ANDALUSIA      SUNNY     96  67  38 N6        30.05F HX 100
TROY           MOSUNNY   90  70  51 MISG      30.08F HX  95
EUFALA         FAIR      91  70  49 VRB5      30.06F HX  96
MOBILE         PTSUNNY   92  66  42 VRB3      30.06F HX  94
$$

!GAZ120>161-312000
...Southwest and South Central Georgia...

CITY           SKY/WX    TMP DP  RH WIND       PRES   REMARKS
THOMASVILLE    FAIR      88  70  55 E8        30.07F HX  92
BAINBRIDGE     MOSUNNY   91  72  52 N6        30.06F HX  98
MOODY AFB      MOSUNNY   87  69  55 VRB6      30.06F HX  92
VALDOSTA       PTSUNNY   89  71  55 VRB3      30.06F HX  95
MOULTRIE       MOSUNNY   88  68  51 NE3       30.07F HX  91
BLAKELY        SUNNY     90  70  51 W5        30.06F HX  95
ALBANY         MOSUNNY   89  69  51 N10       30.08F HX  93
TIFTON         FAIR      86  66  50 N3        30.08S
FITZGERALD     MOCLDY    89  69  52 N6        30.10F HX  93
CORDELE        FAIR      88  71  56 NE6       30.09F HX  94
AMERICUS       MOCLDY    82  68  61 N7        30.10S
HOMERVILLE     FAIR      90  72  55 N6        30.07S HX  96
$$

!GMZ750-755-770-775-312000
...Coastal and Buoy Obs...

STATION/POSITION TIME  TEMP    WIND        PRES    VSBY  WAVE
                       AIR SEA DIR/SP/G                  HT/PER
                 (UTC) (F)     (DEG/KT/KT) (MB)    (MI)  (FT/S)
KEATON BEACH     1900   87      70/  6/  8 1017.3F
CEDAR KEY        1900   82      40/  7/  9 1017.8F
C TOWER          1900   81      70/ 14/ 15 1017.1F
APALACHICOLA BUO 1850   85 87   50/ 10/ 12 1016.8R         2/ 5
PANAMA CITY BUOY 1850   85 86   30/ 12/ 14 1017.2F         1/ 5
MOBILE BUOY      1850   83 87   40/  8/ 12 1017.7F         1/ 5
ORANGE BCH AL BU 1850   83 87  110/  2/  4 1017.2F         1/ 7
$$



USA.gov is the U.S. government's official web portal to all federal, state and local government web resources and services.